Index of /20260426/WXO-DD/model_rdps/10km/18/007
Name Last modified Size Description
Parent Directory -
20260426T18Z_MSC_RDPS_AbsoluteVorticity_IsbL-0250_RLatLon0.09_PT007H.grib2 2026-04-26 21:22 620K
20260426T18Z_MSC_RDPS_AbsoluteVorticity_IsbL-0500_RLatLon0.09_PT007H.grib2 2026-04-26 21:22 563K
20260426T18Z_MSC_RDPS_AbsoluteVorticity_IsbL-0700_RLatLon0.09_PT007H.grib2 2026-04-26 21:22 622K
20260426T18Z_MSC_RDPS_AbsoluteVorticity_IsbL-0850_RLatLon0.09_PT007H.grib2 2026-04-26 21:22 782K
20260426T18Z_MSC_RDPS_AirTemp_AGL-120m_RLatLon0.09_PT007H.grib2 2026-04-26 21:22 388K
20260426T18Z_MSC_RDPS_AirTemp_AGL-2m_RLatLon0.09_PT007H.grib2 2026-04-26 21:22 624K
20260426T18Z_MSC_RDPS_AirTemp_AGL-40m_RLatLon0.09_PT007H.grib2 2026-04-26 21:22 400K
20260426T18Z_MSC_RDPS_AirTemp_AGL-80m_RLatLon0.09_PT007H.grib2 2026-04-26 21:22 392K
20260426T18Z_MSC_RDPS_AirTemp_IsbL-0001_RLatLon0.09_PT007H.grib2 2026-04-26 21:22 254K
20260426T18Z_MSC_RDPS_AirTemp_IsbL-0005_RLatLon0.09_PT007H.grib2 2026-04-26 21:22 286K
20260426T18Z_MSC_RDPS_AirTemp_IsbL-0010_RLatLon0.09_PT007H.grib2 2026-04-26 21:22 296K
20260426T18Z_MSC_RDPS_AirTemp_IsbL-0020_RLatLon0.09_PT007H.grib2 2026-04-26 21:22 312K
20260426T18Z_MSC_RDPS_AirTemp_IsbL-0030_RLatLon0.09_PT007H.grib2 2026-04-26 21:22 332K
20260426T18Z_MSC_RDPS_AirTemp_IsbL-0050_RLatLon0.09_PT007H.grib2 2026-04-26 21:22 312K
20260426T18Z_MSC_RDPS_AirTemp_IsbL-0100_RLatLon0.09_PT007H.grib2 2026-04-26 21:22 415K
20260426T18Z_MSC_RDPS_AirTemp_IsbL-0150_RLatLon0.09_PT007H.grib2 2026-04-26 21:22 415K
20260426T18Z_MSC_RDPS_AirTemp_IsbL-0175_RLatLon0.09_PT007H.grib2 2026-04-26 21:22 412K
20260426T18Z_MSC_RDPS_AirTemp_IsbL-0200_RLatLon0.09_PT007H.grib2 2026-04-26 21:22 422K
20260426T18Z_MSC_RDPS_AirTemp_IsbL-0225_RLatLon0.09_PT007H.grib2 2026-04-26 21:22 425K
20260426T18Z_MSC_RDPS_AirTemp_IsbL-0250_RLatLon0.09_PT007H.grib2 2026-04-26 21:22 429K
20260426T18Z_MSC_RDPS_AirTemp_IsbL-0275_RLatLon0.09_PT007H.grib2 2026-04-26 21:22 408K
20260426T18Z_MSC_RDPS_AirTemp_IsbL-0300_RLatLon0.09_PT007H.grib2 2026-04-26 21:22 414K
20260426T18Z_MSC_RDPS_AirTemp_IsbL-0350_RLatLon0.09_PT007H.grib2 2026-04-26 21:22 425K
20260426T18Z_MSC_RDPS_AirTemp_IsbL-0400_RLatLon0.09_PT007H.grib2 2026-04-26 21:22 426K
20260426T18Z_MSC_RDPS_AirTemp_IsbL-0450_RLatLon0.09_PT007H.grib2 2026-04-26 21:22 433K
20260426T18Z_MSC_RDPS_AirTemp_IsbL-0500_RLatLon0.09_PT007H.grib2 2026-04-26 21:22 411K
20260426T18Z_MSC_RDPS_AirTemp_IsbL-0550_RLatLon0.09_PT007H.grib2 2026-04-26 21:22 429K
20260426T18Z_MSC_RDPS_AirTemp_IsbL-0600_RLatLon0.09_PT007H.grib2 2026-04-26 21:22 447K
20260426T18Z_MSC_RDPS_AirTemp_IsbL-0650_RLatLon0.09_PT007H.grib2 2026-04-26 21:22 460K
20260426T18Z_MSC_RDPS_AirTemp_IsbL-0700_RLatLon0.09_PT007H.grib2 2026-04-26 21:22 485K
20260426T18Z_MSC_RDPS_AirTemp_IsbL-0750_RLatLon0.09_PT007H.grib2 2026-04-26 21:22 411K
20260426T18Z_MSC_RDPS_AirTemp_IsbL-0800_RLatLon0.09_PT007H.grib2 2026-04-26 21:22 468K
20260426T18Z_MSC_RDPS_AirTemp_IsbL-0850_RLatLon0.09_PT007H.grib2 2026-04-26 21:22 506K
20260426T18Z_MSC_RDPS_AirTemp_IsbL-0875_RLatLon0.09_PT007H.grib2 2026-04-26 21:22 517K
20260426T18Z_MSC_RDPS_AirTemp_IsbL-0900_RLatLon0.09_PT007H.grib2 2026-04-26 21:22 522K
20260426T18Z_MSC_RDPS_AirTemp_IsbL-0925_RLatLon0.09_PT007H.grib2 2026-04-26 21:22 521K
20260426T18Z_MSC_RDPS_AirTemp_IsbL-0950_RLatLon0.09_PT007H.grib2 2026-04-26 21:22 522K
20260426T18Z_MSC_RDPS_AirTemp_IsbL-0970_RLatLon0.09_PT007H.grib2 2026-04-26 21:22 522K
20260426T18Z_MSC_RDPS_AirTemp_IsbL-0985_RLatLon0.09_PT007H.grib2 2026-04-26 21:22 518K
20260426T18Z_MSC_RDPS_AirTemp_IsbL-1000_RLatLon0.09_PT007H.grib2 2026-04-26 21:22 503K
20260426T18Z_MSC_RDPS_AirTemp_IsbL-1015_RLatLon0.09_PT007H.grib2 2026-04-26 21:22 498K
20260426T18Z_MSC_RDPS_Albedo_Sfc_RLatLon0.09_PT007H.grib2 2026-04-26 21:22 164K
20260426T18Z_MSC_RDPS_CAPE_Sfc_RLatLon0.09_PT007H.grib2 2026-04-26 21:22 1.7M
20260426T18Z_MSC_RDPS_CIN_Sfc_RLatLon0.09_PT007H.grib2 2026-04-26 21:22 1.2M
20260426T18Z_MSC_RDPS_CloudWater_EAtm_RLatLon0.09_PT007H.grib2 2026-04-26 21:22 218K
20260426T18Z_MSC_RDPS_ConvectivePrecip-Accum_Sfc_RLatLon0.09_PT007H.grib2 2026-04-26 21:22 588K
20260426T18Z_MSC_RDPS_DewPointDepression_AGL-2m_RLatLon0.09_PT007H.grib2 2026-04-26 21:22 402K
20260426T18Z_MSC_RDPS_DewPointDepression_IsbL-0001_RLatLon0.09_PT007H.grib2 2026-04-26 21:22 193
20260426T18Z_MSC_RDPS_DewPointDepression_IsbL-0005_RLatLon0.09_PT007H.grib2 2026-04-26 21:22 193
20260426T18Z_MSC_RDPS_DewPointDepression_IsbL-0010_RLatLon0.09_PT007H.grib2 2026-04-26 21:22 193
20260426T18Z_MSC_RDPS_DewPointDepression_IsbL-0020_RLatLon0.09_PT007H.grib2 2026-04-26 21:22 193
20260426T18Z_MSC_RDPS_DewPointDepression_IsbL-0030_RLatLon0.09_PT007H.grib2 2026-04-26 21:22 193
20260426T18Z_MSC_RDPS_DewPointDepression_IsbL-0050_RLatLon0.09_PT007H.grib2 2026-04-26 21:22 88K
20260426T18Z_MSC_RDPS_DewPointDepression_IsbL-0100_RLatLon0.09_PT007H.grib2 2026-04-26 21:22 123K
20260426T18Z_MSC_RDPS_DewPointDepression_IsbL-0150_RLatLon0.09_PT007H.grib2 2026-04-26 21:22 155K
20260426T18Z_MSC_RDPS_DewPointDepression_IsbL-0175_RLatLon0.09_PT007H.grib2 2026-04-26 21:22 193K
20260426T18Z_MSC_RDPS_DewPointDepression_IsbL-0200_RLatLon0.09_PT007H.grib2 2026-04-26 21:22 234K
20260426T18Z_MSC_RDPS_DewPointDepression_IsbL-0225_RLatLon0.09_PT007H.grib2 2026-04-26 21:22 275K
20260426T18Z_MSC_RDPS_DewPointDepression_IsbL-0250_RLatLon0.09_PT007H.grib2 2026-04-26 21:22 316K
20260426T18Z_MSC_RDPS_DewPointDepression_IsbL-0275_RLatLon0.09_PT007H.grib2 2026-04-26 21:22 323K
20260426T18Z_MSC_RDPS_DewPointDepression_IsbL-0300_RLatLon0.09_PT007H.grib2 2026-04-26 21:22 340K
20260426T18Z_MSC_RDPS_DewPointDepression_IsbL-0350_RLatLon0.09_PT007H.grib2 2026-04-26 21:22 340K
20260426T18Z_MSC_RDPS_DewPointDepression_IsbL-0400_RLatLon0.09_PT007H.grib2 2026-04-26 21:22 350K
20260426T18Z_MSC_RDPS_DewPointDepression_IsbL-0450_RLatLon0.09_PT007H.grib2 2026-04-26 21:22 359K
20260426T18Z_MSC_RDPS_DewPointDepression_IsbL-0500_RLatLon0.09_PT007H.grib2 2026-04-26 21:22 365K
20260426T18Z_MSC_RDPS_DewPointDepression_IsbL-0550_RLatLon0.09_PT007H.grib2 2026-04-26 21:22 375K
20260426T18Z_MSC_RDPS_DewPointDepression_IsbL-0600_RLatLon0.09_PT007H.grib2 2026-04-26 21:22 385K
20260426T18Z_MSC_RDPS_DewPointDepression_IsbL-0650_RLatLon0.09_PT007H.grib2 2026-04-26 21:22 385K
20260426T18Z_MSC_RDPS_DewPointDepression_IsbL-0700_RLatLon0.09_PT007H.grib2 2026-04-26 21:22 396K
20260426T18Z_MSC_RDPS_DewPointDepression_IsbL-0750_RLatLon0.09_PT007H.grib2 2026-04-26 21:22 423K
20260426T18Z_MSC_RDPS_DewPointDepression_IsbL-0800_RLatLon0.09_PT007H.grib2 2026-04-26 21:22 455K
20260426T18Z_MSC_RDPS_DewPointDepression_IsbL-0850_RLatLon0.09_PT007H.grib2 2026-04-26 21:22 474K
20260426T18Z_MSC_RDPS_DewPointDepression_IsbL-0875_RLatLon0.09_PT007H.grib2 2026-04-26 21:22 472K
20260426T18Z_MSC_RDPS_DewPointDepression_IsbL-0900_RLatLon0.09_PT007H.grib2 2026-04-26 21:22 464K
20260426T18Z_MSC_RDPS_DewPointDepression_IsbL-0925_RLatLon0.09_PT007H.grib2 2026-04-26 21:22 454K
20260426T18Z_MSC_RDPS_DewPointDepression_IsbL-0950_RLatLon0.09_PT007H.grib2 2026-04-26 21:22 441K
20260426T18Z_MSC_RDPS_DewPointDepression_IsbL-0970_RLatLon0.09_PT007H.grib2 2026-04-26 21:22 430K
20260426T18Z_MSC_RDPS_DewPointDepression_IsbL-0985_RLatLon0.09_PT007H.grib2 2026-04-26 21:22 425K
20260426T18Z_MSC_RDPS_DewPointDepression_IsbL-1000_RLatLon0.09_PT007H.grib2 2026-04-26 21:22 420K
20260426T18Z_MSC_RDPS_DewPointDepression_IsbL-1015_RLatLon0.09_PT007H.grib2 2026-04-26 21:22 412K
20260426T18Z_MSC_RDPS_DewPoint_AGL-2m_RLatLon0.09_PT007H.grib2 2026-04-26 21:22 306K
20260426T18Z_MSC_RDPS_DownwardLongwaveRadiationFlux-Accum_Sfc_RLatLon0.09_PT007H.grib2 2026-04-26 21:22 537K
20260426T18Z_MSC_RDPS_DownwardShortwaveRadiationFlux-Accum_NTAtm_RLatLon0.09_PT007H.grib2 2026-04-26 21:22 117K
20260426T18Z_MSC_RDPS_DownwardShortwaveRadiationFlux-Accum_Sfc_RLatLon0.09_PT007H.grib2 2026-04-26 21:22 483K
20260426T18Z_MSC_RDPS_FreezingRain-Accum1h_Sfc_RLatLon0.09_PT007H.grib2 2026-04-26 21:22 11K
20260426T18Z_MSC_RDPS_FreezingRain-Accum_Sfc_RLatLon0.09_PT007H.grib2 2026-04-26 21:22 23K
20260426T18Z_MSC_RDPS_GeopotentialHeight_IsbL-0001_RLatLon0.09_PT007H.grib2 2026-04-26 21:22 238K
20260426T18Z_MSC_RDPS_GeopotentialHeight_IsbL-0005_RLatLon0.09_PT007H.grib2 2026-04-26 21:22 336K
20260426T18Z_MSC_RDPS_GeopotentialHeight_IsbL-0010_RLatLon0.09_PT007H.grib2 2026-04-26 21:22 304K
20260426T18Z_MSC_RDPS_GeopotentialHeight_IsbL-0020_RLatLon0.09_PT007H.grib2 2026-04-26 21:22 303K
20260426T18Z_MSC_RDPS_GeopotentialHeight_IsbL-0030_RLatLon0.09_PT007H.grib2 2026-04-26 21:22 401K
20260426T18Z_MSC_RDPS_GeopotentialHeight_IsbL-0050_RLatLon0.09_PT007H.grib2 2026-04-26 21:22 306K
20260426T18Z_MSC_RDPS_GeopotentialHeight_IsbL-0100_RLatLon0.09_PT007H.grib2 2026-04-26 21:22 288K
20260426T18Z_MSC_RDPS_GeopotentialHeight_IsbL-0150_RLatLon0.09_PT007H.grib2 2026-04-26 21:22 228K
20260426T18Z_MSC_RDPS_GeopotentialHeight_IsbL-0175_RLatLon0.09_PT007H.grib2 2026-04-26 21:22 232K
20260426T18Z_MSC_RDPS_GeopotentialHeight_IsbL-0200_RLatLon0.09_PT007H.grib2 2026-04-26 21:22 266K
20260426T18Z_MSC_RDPS_GeopotentialHeight_IsbL-0225_RLatLon0.09_PT007H.grib2 2026-04-26 21:22 267K
20260426T18Z_MSC_RDPS_GeopotentialHeight_IsbL-0250_RLatLon0.09_PT007H.grib2 2026-04-26 21:22 269K
20260426T18Z_MSC_RDPS_GeopotentialHeight_IsbL-0275_RLatLon0.09_PT007H.grib2 2026-04-26 21:22 236K
20260426T18Z_MSC_RDPS_GeopotentialHeight_IsbL-0300_RLatLon0.09_PT007H.grib2 2026-04-26 21:22 237K
20260426T18Z_MSC_RDPS_GeopotentialHeight_IsbL-0350_RLatLon0.09_PT007H.grib2 2026-04-26 21:22 232K
20260426T18Z_MSC_RDPS_GeopotentialHeight_IsbL-0400_RLatLon0.09_PT007H.grib2 2026-04-26 21:22 229K
20260426T18Z_MSC_RDPS_GeopotentialHeight_IsbL-0450_RLatLon0.09_PT007H.grib2 2026-04-26 21:22 297K
20260426T18Z_MSC_RDPS_GeopotentialHeight_IsbL-0500_RLatLon0.09_PT007H.grib2 2026-04-26 21:22 293K
20260426T18Z_MSC_RDPS_GeopotentialHeight_IsbL-0550_RLatLon0.09_PT007H.grib2 2026-04-26 21:22 290K
20260426T18Z_MSC_RDPS_GeopotentialHeight_IsbL-0600_RLatLon0.09_PT007H.grib2 2026-04-26 21:22 287K
20260426T18Z_MSC_RDPS_GeopotentialHeight_IsbL-0650_RLatLon0.09_PT007H.grib2 2026-04-26 21:22 284K
20260426T18Z_MSC_RDPS_GeopotentialHeight_IsbL-0700_RLatLon0.09_PT007H.grib2 2026-04-26 21:22 282K
20260426T18Z_MSC_RDPS_GeopotentialHeight_IsbL-0750_RLatLon0.09_PT007H.grib2 2026-04-26 21:22 281K
20260426T18Z_MSC_RDPS_GeopotentialHeight_IsbL-0800_RLatLon0.09_PT007H.grib2 2026-04-26 21:22 260K
20260426T18Z_MSC_RDPS_GeopotentialHeight_IsbL-0850_RLatLon0.09_PT007H.grib2 2026-04-26 21:22 265K
20260426T18Z_MSC_RDPS_GeopotentialHeight_IsbL-0875_RLatLon0.09_PT007H.grib2 2026-04-26 21:22 268K
20260426T18Z_MSC_RDPS_GeopotentialHeight_IsbL-0900_RLatLon0.09_PT007H.grib2 2026-04-26 21:22 271K
20260426T18Z_MSC_RDPS_GeopotentialHeight_IsbL-0925_RLatLon0.09_PT007H.grib2 2026-04-26 21:22 274K
20260426T18Z_MSC_RDPS_GeopotentialHeight_IsbL-0950_RLatLon0.09_PT007H.grib2 2026-04-26 21:22 277K
20260426T18Z_MSC_RDPS_GeopotentialHeight_IsbL-0970_RLatLon0.09_PT007H.grib2 2026-04-26 21:22 282K
20260426T18Z_MSC_RDPS_GeopotentialHeight_IsbL-0985_RLatLon0.09_PT007H.grib2 2026-04-26 21:22 289K
20260426T18Z_MSC_RDPS_GeopotentialHeight_IsbL-1000_RLatLon0.09_PT007H.grib2 2026-04-26 21:22 298K
20260426T18Z_MSC_RDPS_GeopotentialHeight_IsbL-1015_RLatLon0.09_PT007H.grib2 2026-04-26 21:22 308K
20260426T18Z_MSC_RDPS_Humidex_Sfc_RLatLon0.09_PT007H.grib2 2026-04-26 21:22 2.4M
20260426T18Z_MSC_RDPS_IcePellets-Accum1h_Sfc_RLatLon0.09_PT007H.grib2 2026-04-26 21:22 6.3K
20260426T18Z_MSC_RDPS_IcePellets-Accum_Sfc_RLatLon0.09_PT007H.grib2 2026-04-26 21:22 7.6K
20260426T18Z_MSC_RDPS_KIndex_Sfc_RLatLon0.09_PT007H.grib2 2026-04-26 21:22 2.3M
20260426T18Z_MSC_RDPS_LatentHeatNetFlux_Sfc_RLatLon0.09_PT007H.grib2 2026-04-26 21:22 334K
20260426T18Z_MSC_RDPS_LiftedIndex-MU-VT_IsbL-0500_RLatLon0.09_PT007H.grib2 2026-04-26 21:22 2.4M
20260426T18Z_MSC_RDPS_NetLongwaveRadiationFlux-Accum_Sfc_RLatLon0.09_PT007H.grib2 2026-04-26 21:22 550K
20260426T18Z_MSC_RDPS_NetShortwaveRadiationFlux-Accum_Sfc_RLatLon0.09_PT007H.grib2 2026-04-26 21:22 478K
20260426T18Z_MSC_RDPS_PlanetaryBoundaryLayerHeight_Sfc_RLatLon0.09_PT007H.grib2 2026-04-26 21:22 1.0M
20260426T18Z_MSC_RDPS_Precip-Accum1h_Sfc_RLatLon0.09_PT007H.grib2 2026-04-26 21:22 1.2M
20260426T18Z_MSC_RDPS_Precip-Accum_Sfc_RLatLon0.09_PT007H.grib2 2026-04-26 21:22 1.5M
20260426T18Z_MSC_RDPS_PrecipRate_Sfc_RLatLon0.09_PT007H.grib2 2026-04-26 21:22 180K
20260426T18Z_MSC_RDPS_PrecipType-Instant_Sfc_RLatLon0.09_PT007H.grib2 2026-04-26 21:22 583K
20260426T18Z_MSC_RDPS_Pressure-Trend3h_Sfc_RLatLon0.09_PT007H.grib2 2026-04-26 21:22 1.2M
20260426T18Z_MSC_RDPS_Pressure_MSL_RLatLon0.09_PT007H.grib2 2026-04-26 21:22 325K
20260426T18Z_MSC_RDPS_Pressure_PVU-1.5_RLatLon0.09_PT007H.grib2 2026-04-26 21:22 2.5M
20260426T18Z_MSC_RDPS_Pressure_PVU-1_RLatLon0.09_PT007H.grib2 2026-04-26 21:22 2.4M
20260426T18Z_MSC_RDPS_Pressure_PVU-2_RLatLon0.09_PT007H.grib2 2026-04-26 21:22 2.4M
20260426T18Z_MSC_RDPS_Pressure_Sfc_RLatLon0.09_PT007H.grib2 2026-04-26 21:22 498K
20260426T18Z_MSC_RDPS_RadiativeTemp_Sfc_RLatLon0.09_PT007H.grib2 2026-04-26 21:22 310K
20260426T18Z_MSC_RDPS_Rain-Accum1h_Sfc_RLatLon0.09_PT007H.grib2 2026-04-26 21:22 592K
20260426T18Z_MSC_RDPS_Rain-Accum_Sfc_RLatLon0.09_PT007H.grib2 2026-04-26 21:22 1.1M
20260426T18Z_MSC_RDPS_RelativeHumidity_AGL-2m_RLatLon0.09_PT007H.grib2 2026-04-26 21:22 1.0M
20260426T18Z_MSC_RDPS_RelativeHumidity_IsbL-0010_RLatLon0.09_PT007H.grib2 2026-04-26 21:22 628K
20260426T18Z_MSC_RDPS_RelativeHumidity_IsbL-0020_RLatLon0.09_PT007H.grib2 2026-04-26 21:22 653K
20260426T18Z_MSC_RDPS_RelativeHumidity_IsbL-0030_RLatLon0.09_PT007H.grib2 2026-04-26 21:22 540K
20260426T18Z_MSC_RDPS_RelativeHumidity_IsbL-0050_RLatLon0.09_PT007H.grib2 2026-04-26 21:22 324K
20260426T18Z_MSC_RDPS_RelativeHumidity_IsbL-0100_RLatLon0.09_PT007H.grib2 2026-04-26 21:22 269K
20260426T18Z_MSC_RDPS_RelativeHumidity_IsbL-0150_RLatLon0.09_PT007H.grib2 2026-04-26 21:22 411K
20260426T18Z_MSC_RDPS_RelativeHumidity_IsbL-0175_RLatLon0.09_PT007H.grib2 2026-04-26 21:22 489K
20260426T18Z_MSC_RDPS_RelativeHumidity_IsbL-0200_RLatLon0.09_PT007H.grib2 2026-04-26 21:22 570K
20260426T18Z_MSC_RDPS_RelativeHumidity_IsbL-0225_RLatLon0.09_PT007H.grib2 2026-04-26 21:22 640K
20260426T18Z_MSC_RDPS_RelativeHumidity_IsbL-0250_RLatLon0.09_PT007H.grib2 2026-04-26 21:22 713K
20260426T18Z_MSC_RDPS_RelativeHumidity_IsbL-0275_RLatLon0.09_PT007H.grib2 2026-04-26 21:22 740K
20260426T18Z_MSC_RDPS_RelativeHumidity_IsbL-0300_RLatLon0.09_PT007H.grib2 2026-04-26 21:22 782K
20260426T18Z_MSC_RDPS_RelativeHumidity_IsbL-0350_RLatLon0.09_PT007H.grib2 2026-04-26 21:22 794K
20260426T18Z_MSC_RDPS_RelativeHumidity_IsbL-0400_RLatLon0.09_PT007H.grib2 2026-04-26 21:22 805K
20260426T18Z_MSC_RDPS_RelativeHumidity_IsbL-0450_RLatLon0.09_PT007H.grib2 2026-04-26 21:22 814K
20260426T18Z_MSC_RDPS_RelativeHumidity_IsbL-0500_RLatLon0.09_PT007H.grib2 2026-04-26 21:22 829K
20260426T18Z_MSC_RDPS_RelativeHumidity_IsbL-0550_RLatLon0.09_PT007H.grib2 2026-04-26 21:22 845K
20260426T18Z_MSC_RDPS_RelativeHumidity_IsbL-0600_RLatLon0.09_PT007H.grib2 2026-04-26 21:22 864K
20260426T18Z_MSC_RDPS_RelativeHumidity_IsbL-0650_RLatLon0.09_PT007H.grib2 2026-04-26 21:22 876K
20260426T18Z_MSC_RDPS_RelativeHumidity_IsbL-0700_RLatLon0.09_PT007H.grib2 2026-04-26 21:22 903K
20260426T18Z_MSC_RDPS_RelativeHumidity_IsbL-0750_RLatLon0.09_PT007H.grib2 2026-04-26 21:22 951K
20260426T18Z_MSC_RDPS_RelativeHumidity_IsbL-0800_RLatLon0.09_PT007H.grib2 2026-04-26 21:22 1.0M
20260426T18Z_MSC_RDPS_RelativeHumidity_IsbL-0850_RLatLon0.09_PT007H.grib2 2026-04-26 21:22 1.0M
20260426T18Z_MSC_RDPS_RelativeHumidity_IsbL-0875_RLatLon0.09_PT007H.grib2 2026-04-26 21:22 1.1M
20260426T18Z_MSC_RDPS_RelativeHumidity_IsbL-0900_RLatLon0.09_PT007H.grib2 2026-04-26 21:22 1.1M
20260426T18Z_MSC_RDPS_RelativeHumidity_IsbL-0925_RLatLon0.09_PT007H.grib2 2026-04-26 21:22 1.1M
20260426T18Z_MSC_RDPS_RelativeHumidity_IsbL-0950_RLatLon0.09_PT007H.grib2 2026-04-26 21:22 1.1M
20260426T18Z_MSC_RDPS_RelativeHumidity_IsbL-0970_RLatLon0.09_PT007H.grib2 2026-04-26 21:22 1.0M
20260426T18Z_MSC_RDPS_RelativeHumidity_IsbL-0985_RLatLon0.09_PT007H.grib2 2026-04-26 21:22 1.0M
20260426T18Z_MSC_RDPS_RelativeHumidity_IsbL-1000_RLatLon0.09_PT007H.grib2 2026-04-26 21:22 1.0M
20260426T18Z_MSC_RDPS_RelativeHumidity_IsbL-1015_RLatLon0.09_PT007H.grib2 2026-04-26 21:22 1.0M
20260426T18Z_MSC_RDPS_Runoff-Accum_Sfc_RLatLon0.09_PT007H.grib2 2026-04-26 21:22 43K
20260426T18Z_MSC_RDPS_SWEATIndex_Sfc_RLatLon0.09_PT007H.grib2 2026-04-26 21:22 2.4M
20260426T18Z_MSC_RDPS_SeeingIndex_EAtm_RLatLon0.09_PT007H.grib2 2026-04-26 21:22 1.0M
20260426T18Z_MSC_RDPS_SensibleHeatNetFlux_Sfc_RLatLon0.09_PT007H.grib2 2026-04-26 21:22 301K
20260426T18Z_MSC_RDPS_ShowalterIndex_IsbL-0500_RLatLon0.09_PT007H.grib2 2026-04-26 21:22 2.6M
20260426T18Z_MSC_RDPS_SkyTransparencyIndex_EAtm_RLatLon0.09_PT007H.grib2 2026-04-26 21:22 712K
20260426T18Z_MSC_RDPS_Snow-Accum1h_Sfc_RLatLon0.09_PT007H.grib2 2026-04-26 21:22 476K
20260426T18Z_MSC_RDPS_Snow-Accum_Sfc_RLatLon0.09_PT007H.grib2 2026-04-26 21:22 666K
20260426T18Z_MSC_RDPS_SnowDensity_Sfc_RLatLon0.09_PT007H.grib2 2026-04-26 21:22 178K
20260426T18Z_MSC_RDPS_SnowDepth_Sfc_RLatLon0.09_PT007H.grib2 2026-04-26 21:22 716K
20260426T18Z_MSC_RDPS_SoilTemp_DBS-0to10cm_RLatLon0.09_PT007H.grib2 2026-04-26 21:22 208K
20260426T18Z_MSC_RDPS_SoilTemp_Sfc_RLatLon0.09_PT007H.grib2 2026-04-26 21:22 279K
20260426T18Z_MSC_RDPS_SoilVolumetricIceContent_Sfc_RLatLon0.09_PT007H.grib2 2026-04-26 21:22 168K
20260426T18Z_MSC_RDPS_SoilVolumetricWaterContent_DBS-0to10cm_RLatLon0.09_PT007H.grib2 2026-04-26 21:22 258K
20260426T18Z_MSC_RDPS_SoilVolumetricWaterContent_DBS-0to1cm_RLatLon0.09_PT007H.grib2 2026-04-26 21:22 336K
20260426T18Z_MSC_RDPS_SpecificHumidity_AGL-120m_RLatLon0.09_PT007H.grib2 2026-04-26 21:22 478K
20260426T18Z_MSC_RDPS_SpecificHumidity_AGL-2m_RLatLon0.09_PT007H.grib2 2026-04-26 21:22 644K
20260426T18Z_MSC_RDPS_SpecificHumidity_AGL-40m_RLatLon0.09_PT007H.grib2 2026-04-26 21:22 484K
20260426T18Z_MSC_RDPS_SpecificHumidity_AGL-80m_RLatLon0.09_PT007H.grib2 2026-04-26 21:22 479K
20260426T18Z_MSC_RDPS_SpecificHumidity_IsbL-0001_RLatLon0.09_PT007H.grib2 2026-04-26 21:22 336K
20260426T18Z_MSC_RDPS_SpecificHumidity_IsbL-0005_RLatLon0.09_PT007H.grib2 2026-04-26 21:22 354K
20260426T18Z_MSC_RDPS_SpecificHumidity_IsbL-0010_RLatLon0.09_PT007H.grib2 2026-04-26 21:22 396K
20260426T18Z_MSC_RDPS_SpecificHumidity_IsbL-0020_RLatLon0.09_PT007H.grib2 2026-04-26 21:22 386K
20260426T18Z_MSC_RDPS_SpecificHumidity_IsbL-0030_RLatLon0.09_PT007H.grib2 2026-04-26 21:22 479K
20260426T18Z_MSC_RDPS_SpecificHumidity_IsbL-0050_RLatLon0.09_PT007H.grib2 2026-04-26 21:22 472K
20260426T18Z_MSC_RDPS_SpecificHumidity_IsbL-0100_RLatLon0.09_PT007H.grib2 2026-04-26 21:22 444K
20260426T18Z_MSC_RDPS_SpecificHumidity_IsbL-0150_RLatLon0.09_PT007H.grib2 2026-04-26 21:22 456K
20260426T18Z_MSC_RDPS_SpecificHumidity_IsbL-0175_RLatLon0.09_PT007H.grib2 2026-04-26 21:22 458K
20260426T18Z_MSC_RDPS_SpecificHumidity_IsbL-0200_RLatLon0.09_PT007H.grib2 2026-04-26 21:22 472K
20260426T18Z_MSC_RDPS_SpecificHumidity_IsbL-0225_RLatLon0.09_PT007H.grib2 2026-04-26 21:22 473K
20260426T18Z_MSC_RDPS_SpecificHumidity_IsbL-0250_RLatLon0.09_PT007H.grib2 2026-04-26 21:22 580K
20260426T18Z_MSC_RDPS_SpecificHumidity_IsbL-0275_RLatLon0.09_PT007H.grib2 2026-04-26 21:22 494K
20260426T18Z_MSC_RDPS_SpecificHumidity_IsbL-0300_RLatLon0.09_PT007H.grib2 2026-04-26 21:22 564K
20260426T18Z_MSC_RDPS_SpecificHumidity_IsbL-0350_RLatLon0.09_PT007H.grib2 2026-04-26 21:22 548K
20260426T18Z_MSC_RDPS_SpecificHumidity_IsbL-0400_RLatLon0.09_PT007H.grib2 2026-04-26 21:22 526K
20260426T18Z_MSC_RDPS_SpecificHumidity_IsbL-0450_RLatLon0.09_PT007H.grib2 2026-04-26 21:22 581K
20260426T18Z_MSC_RDPS_SpecificHumidity_IsbL-0500_RLatLon0.09_PT007H.grib2 2026-04-26 21:22 515K
20260426T18Z_MSC_RDPS_SpecificHumidity_IsbL-0550_RLatLon0.09_PT007H.grib2 2026-04-26 21:22 585K
20260426T18Z_MSC_RDPS_SpecificHumidity_IsbL-0600_RLatLon0.09_PT007H.grib2 2026-04-26 21:22 634K
20260426T18Z_MSC_RDPS_SpecificHumidity_IsbL-0650_RLatLon0.09_PT007H.grib2 2026-04-26 21:22 550K
20260426T18Z_MSC_RDPS_SpecificHumidity_IsbL-0700_RLatLon0.09_PT007H.grib2 2026-04-26 21:22 595K
20260426T18Z_MSC_RDPS_SpecificHumidity_IsbL-0750_RLatLon0.09_PT007H.grib2 2026-04-26 21:22 668K
20260426T18Z_MSC_RDPS_SpecificHumidity_IsbL-0800_RLatLon0.09_PT007H.grib2 2026-04-26 21:22 740K
20260426T18Z_MSC_RDPS_SpecificHumidity_IsbL-0850_RLatLon0.09_PT007H.grib2 2026-04-26 21:22 804K
20260426T18Z_MSC_RDPS_SpecificHumidity_IsbL-0875_RLatLon0.09_PT007H.grib2 2026-04-26 21:22 826K
20260426T18Z_MSC_RDPS_SpecificHumidity_IsbL-0900_RLatLon0.09_PT007H.grib2 2026-04-26 21:22 697K
20260426T18Z_MSC_RDPS_SpecificHumidity_IsbL-0925_RLatLon0.09_PT007H.grib2 2026-04-26 21:22 698K
20260426T18Z_MSC_RDPS_SpecificHumidity_IsbL-0950_RLatLon0.09_PT007H.grib2 2026-04-26 21:22 691K
20260426T18Z_MSC_RDPS_SpecificHumidity_IsbL-0970_RLatLon0.09_PT007H.grib2 2026-04-26 21:22 677K
20260426T18Z_MSC_RDPS_SpecificHumidity_IsbL-0985_RLatLon0.09_PT007H.grib2 2026-04-26 21:22 668K
20260426T18Z_MSC_RDPS_SpecificHumidity_IsbL-1000_RLatLon0.09_PT007H.grib2 2026-04-26 21:22 663K
20260426T18Z_MSC_RDPS_SpecificHumidity_IsbL-1015_RLatLon0.09_PT007H.grib2 2026-04-26 21:22 656K
20260426T18Z_MSC_RDPS_SpecificHumidity_Sfc_RLatLon0.09_PT007H.grib2 2026-04-26 21:22 322K
20260426T18Z_MSC_RDPS_StormRelativeHelicity_EtaL-10000_RLatLon0.09_PT007H.grib2 2026-04-26 21:22 1.1M
20260426T18Z_MSC_RDPS_StormSeverityIndex_EtaL-10000_RLatLon0.09_PT007H.grib2 2026-04-26 21:22 1.2M
20260426T18Z_MSC_RDPS_Thickness_IsbL-0850to0700_RLatLon0.09_PT007H.grib2 2026-04-26 21:22 195K
20260426T18Z_MSC_RDPS_Thickness_IsbL-1000to0500_RLatLon0.09_PT007H.grib2 2026-04-26 21:22 202K
20260426T18Z_MSC_RDPS_Thickness_IsbL-1000to0850_RLatLon0.09_PT007H.grib2 2026-04-26 21:22 184K
20260426T18Z_MSC_RDPS_TotalCloudCover_Sfc_RLatLon0.09_PT007H.grib2 2026-04-26 21:22 654K
20260426T18Z_MSC_RDPS_TotalTotalsIndex_Sfc_RLatLon0.09_PT007H.grib2 2026-04-26 21:22 2.4M
20260426T18Z_MSC_RDPS_UVIndex-ClearSky_Sfc_RLatLon0.09_PT007H.grib2 2026-04-26 21:22 139K
20260426T18Z_MSC_RDPS_UVIndex_Sfc_RLatLon0.09_PT007H.grib2 2026-04-26 21:22 317K
20260426T18Z_MSC_RDPS_UpwardLongwaveRadiationFlux_NTAtm_RLatLon0.09_PT007H.grib2 2026-04-26 21:22 498K
20260426T18Z_MSC_RDPS_UpwardShortwaveRadiationFlux_NTAtm_RLatLon0.09_PT007H.grib2 2026-04-26 21:22 294K
20260426T18Z_MSC_RDPS_VerticalVelocity_IsbL-0250_RLatLon0.09_PT007H.grib2 2026-04-26 21:22 549K
20260426T18Z_MSC_RDPS_VerticalVelocity_IsbL-0500_RLatLon0.09_PT007H.grib2 2026-04-26 21:22 541K
20260426T18Z_MSC_RDPS_VerticalVelocity_IsbL-0700_RLatLon0.09_PT007H.grib2 2026-04-26 21:22 596K
20260426T18Z_MSC_RDPS_VerticalVelocity_IsbL-0850_RLatLon0.09_PT007H.grib2 2026-04-26 21:22 696K
20260426T18Z_MSC_RDPS_VerticalWindShear_EtaL-6500_RLatLon0.09_PT007H.grib2 2026-04-26 21:22 1.2M
20260426T18Z_MSC_RDPS_WindChill_Sfc_RLatLon0.09_PT007H.grib2 2026-04-26 21:22 1.1M
20260426T18Z_MSC_RDPS_WindDir_AGL-10m_RLatLon0.09_PT007H.grib2 2026-04-26 21:22 961K
20260426T18Z_MSC_RDPS_WindDir_AGL-120m_RLatLon0.09_PT007H.grib2 2026-04-26 21:22 603K
20260426T18Z_MSC_RDPS_WindDir_AGL-40m_RLatLon0.09_PT007H.grib2 2026-04-26 21:22 630K
20260426T18Z_MSC_RDPS_WindDir_AGL-80m_RLatLon0.09_PT007H.grib2 2026-04-26 21:22 614K
20260426T18Z_MSC_RDPS_WindDir_IsbL-0001_RLatLon0.09_PT007H.grib2 2026-04-26 21:22 291K
20260426T18Z_MSC_RDPS_WindDir_IsbL-0005_RLatLon0.09_PT007H.grib2 2026-04-26 21:22 370K
20260426T18Z_MSC_RDPS_WindDir_IsbL-0010_RLatLon0.09_PT007H.grib2 2026-04-26 21:22 391K
20260426T18Z_MSC_RDPS_WindDir_IsbL-0020_RLatLon0.09_PT007H.grib2 2026-04-26 21:22 410K
20260426T18Z_MSC_RDPS_WindDir_IsbL-0030_RLatLon0.09_PT007H.grib2 2026-04-26 21:22 396K
20260426T18Z_MSC_RDPS_WindDir_IsbL-0050_RLatLon0.09_PT007H.grib2 2026-04-26 21:22 420K
20260426T18Z_MSC_RDPS_WindDir_IsbL-0100_RLatLon0.09_PT007H.grib2 2026-04-26 21:22 407K
20260426T18Z_MSC_RDPS_WindDir_IsbL-0150_RLatLon0.09_PT007H.grib2 2026-04-26 21:22 416K
20260426T18Z_MSC_RDPS_WindDir_IsbL-0175_RLatLon0.09_PT007H.grib2 2026-04-26 21:22 442K
20260426T18Z_MSC_RDPS_WindDir_IsbL-0200_RLatLon0.09_PT007H.grib2 2026-04-26 21:22 458K
20260426T18Z_MSC_RDPS_WindDir_IsbL-0225_RLatLon0.09_PT007H.grib2 2026-04-26 21:22 458K
20260426T18Z_MSC_RDPS_WindDir_IsbL-0250_RLatLon0.09_PT007H.grib2 2026-04-26 21:22 460K
20260426T18Z_MSC_RDPS_WindDir_IsbL-0275_RLatLon0.09_PT007H.grib2 2026-04-26 21:22 484K
20260426T18Z_MSC_RDPS_WindDir_IsbL-0300_RLatLon0.09_PT007H.grib2 2026-04-26 21:22 480K
20260426T18Z_MSC_RDPS_WindDir_IsbL-0350_RLatLon0.09_PT007H.grib2 2026-04-26 21:22 500K
20260426T18Z_MSC_RDPS_WindDir_IsbL-0400_RLatLon0.09_PT007H.grib2 2026-04-26 21:22 518K
20260426T18Z_MSC_RDPS_WindDir_IsbL-0450_RLatLon0.09_PT007H.grib2 2026-04-26 21:22 532K
20260426T18Z_MSC_RDPS_WindDir_IsbL-0500_RLatLon0.09_PT007H.grib2 2026-04-26 21:22 546K
20260426T18Z_MSC_RDPS_WindDir_IsbL-0550_RLatLon0.09_PT007H.grib2 2026-04-26 21:22 564K
20260426T18Z_MSC_RDPS_WindDir_IsbL-0600_RLatLon0.09_PT007H.grib2 2026-04-26 21:22 592K
20260426T18Z_MSC_RDPS_WindDir_IsbL-0650_RLatLon0.09_PT007H.grib2 2026-04-26 21:22 636K
20260426T18Z_MSC_RDPS_WindDir_IsbL-0700_RLatLon0.09_PT007H.grib2 2026-04-26 21:22 683K
20260426T18Z_MSC_RDPS_WindDir_IsbL-0750_RLatLon0.09_PT007H.grib2 2026-04-26 21:22 736K
20260426T18Z_MSC_RDPS_WindDir_IsbL-0800_RLatLon0.09_PT007H.grib2 2026-04-26 21:22 813K
20260426T18Z_MSC_RDPS_WindDir_IsbL-0850_RLatLon0.09_PT007H.grib2 2026-04-26 21:22 884K
20260426T18Z_MSC_RDPS_WindDir_IsbL-0875_RLatLon0.09_PT007H.grib2 2026-04-26 21:22 903K
20260426T18Z_MSC_RDPS_WindDir_IsbL-0900_RLatLon0.09_PT007H.grib2 2026-04-26 21:22 910K
20260426T18Z_MSC_RDPS_WindDir_IsbL-0925_RLatLon0.09_PT007H.grib2 2026-04-26 21:22 911K
20260426T18Z_MSC_RDPS_WindDir_IsbL-0950_RLatLon0.09_PT007H.grib2 2026-04-26 21:22 903K
20260426T18Z_MSC_RDPS_WindDir_IsbL-0970_RLatLon0.09_PT007H.grib2 2026-04-26 21:22 909K
20260426T18Z_MSC_RDPS_WindDir_IsbL-0985_RLatLon0.09_PT007H.grib2 2026-04-26 21:22 921K
20260426T18Z_MSC_RDPS_WindDir_IsbL-1000_RLatLon0.09_PT007H.grib2 2026-04-26 21:22 935K
20260426T18Z_MSC_RDPS_WindDir_IsbL-1015_RLatLon0.09_PT007H.grib2 2026-04-26 21:22 952K
20260426T18Z_MSC_RDPS_WindGust-Max_AGL-10m_RLatLon0.09_PT007H.grib2 2026-04-26 21:22 943K
20260426T18Z_MSC_RDPS_WindGust-Min_AGL-10m_RLatLon0.09_PT007H.grib2 2026-04-26 21:22 969K
20260426T18Z_MSC_RDPS_WindGust_AGL-10m_RLatLon0.09_PT007H.grib2 2026-04-26 21:22 934K
20260426T18Z_MSC_RDPS_WindSpeed_AGL-10m_RLatLon0.09_PT007H.grib2 2026-04-26 21:22 844K
20260426T18Z_MSC_RDPS_WindSpeed_AGL-120m_RLatLon0.09_PT007H.grib2 2026-04-26 21:22 547K
20260426T18Z_MSC_RDPS_WindSpeed_AGL-40m_RLatLon0.09_PT007H.grib2 2026-04-26 21:22 553K
20260426T18Z_MSC_RDPS_WindSpeed_AGL-80m_RLatLon0.09_PT007H.grib2 2026-04-26 21:22 549K
20260426T18Z_MSC_RDPS_WindSpeed_IsbL-0001_RLatLon0.09_PT007H.grib2 2026-04-26 21:22 246K
20260426T18Z_MSC_RDPS_WindSpeed_IsbL-0005_RLatLon0.09_PT007H.grib2 2026-04-26 21:22 293K
20260426T18Z_MSC_RDPS_WindSpeed_IsbL-0010_RLatLon0.09_PT007H.grib2 2026-04-26 21:22 303K
20260426T18Z_MSC_RDPS_WindSpeed_IsbL-0020_RLatLon0.09_PT007H.grib2 2026-04-26 21:22 319K
20260426T18Z_MSC_RDPS_WindSpeed_IsbL-0030_RLatLon0.09_PT007H.grib2 2026-04-26 21:22 317K
20260426T18Z_MSC_RDPS_WindSpeed_IsbL-0050_RLatLon0.09_PT007H.grib2 2026-04-26 21:22 452K
20260426T18Z_MSC_RDPS_WindSpeed_IsbL-0100_RLatLon0.09_PT007H.grib2 2026-04-26 21:22 470K
20260426T18Z_MSC_RDPS_WindSpeed_IsbL-0150_RLatLon0.09_PT007H.grib2 2026-04-26 21:22 377K
20260426T18Z_MSC_RDPS_WindSpeed_IsbL-0175_RLatLon0.09_PT007H.grib2 2026-04-26 21:22 428K
20260426T18Z_MSC_RDPS_WindSpeed_IsbL-0200_RLatLon0.09_PT007H.grib2 2026-04-26 21:22 446K
20260426T18Z_MSC_RDPS_WindSpeed_IsbL-0225_RLatLon0.09_PT007H.grib2 2026-04-26 21:22 455K
20260426T18Z_MSC_RDPS_WindSpeed_IsbL-0250_RLatLon0.09_PT007H.grib2 2026-04-26 21:22 459K
20260426T18Z_MSC_RDPS_WindSpeed_IsbL-0275_RLatLon0.09_PT007H.grib2 2026-04-26 21:22 476K
20260426T18Z_MSC_RDPS_WindSpeed_IsbL-0300_RLatLon0.09_PT007H.grib2 2026-04-26 21:22 471K
20260426T18Z_MSC_RDPS_WindSpeed_IsbL-0350_RLatLon0.09_PT007H.grib2 2026-04-26 21:22 480K
20260426T18Z_MSC_RDPS_WindSpeed_IsbL-0400_RLatLon0.09_PT007H.grib2 2026-04-26 21:22 464K
20260426T18Z_MSC_RDPS_WindSpeed_IsbL-0450_RLatLon0.09_PT007H.grib2 2026-04-26 21:22 461K
20260426T18Z_MSC_RDPS_WindSpeed_IsbL-0500_RLatLon0.09_PT007H.grib2 2026-04-26 21:22 460K
20260426T18Z_MSC_RDPS_WindSpeed_IsbL-0550_RLatLon0.09_PT007H.grib2 2026-04-26 21:22 581K
20260426T18Z_MSC_RDPS_WindSpeed_IsbL-0600_RLatLon0.09_PT007H.grib2 2026-04-26 21:22 593K
20260426T18Z_MSC_RDPS_WindSpeed_IsbL-0650_RLatLon0.09_PT007H.grib2 2026-04-26 21:22 657K
20260426T18Z_MSC_RDPS_WindSpeed_IsbL-0700_RLatLon0.09_PT007H.grib2 2026-04-26 21:22 681K
20260426T18Z_MSC_RDPS_WindSpeed_IsbL-0750_RLatLon0.09_PT007H.grib2 2026-04-26 21:22 712K
20260426T18Z_MSC_RDPS_WindSpeed_IsbL-0800_RLatLon0.09_PT007H.grib2 2026-04-26 21:22 762K
20260426T18Z_MSC_RDPS_WindSpeed_IsbL-0850_RLatLon0.09_PT007H.grib2 2026-04-26 21:22 814K
20260426T18Z_MSC_RDPS_WindSpeed_IsbL-0875_RLatLon0.09_PT007H.grib2 2026-04-26 21:22 833K
20260426T18Z_MSC_RDPS_WindSpeed_IsbL-0900_RLatLon0.09_PT007H.grib2 2026-04-26 21:22 800K
20260426T18Z_MSC_RDPS_WindSpeed_IsbL-0925_RLatLon0.09_PT007H.grib2 2026-04-26 21:22 809K
20260426T18Z_MSC_RDPS_WindSpeed_IsbL-0950_RLatLon0.09_PT007H.grib2 2026-04-26 21:22 810K
20260426T18Z_MSC_RDPS_WindSpeed_IsbL-0970_RLatLon0.09_PT007H.grib2 2026-04-26 21:22 810K
20260426T18Z_MSC_RDPS_WindSpeed_IsbL-0985_RLatLon0.09_PT007H.grib2 2026-04-26 21:22 857K
20260426T18Z_MSC_RDPS_WindSpeed_IsbL-1000_RLatLon0.09_PT007H.grib2 2026-04-26 21:22 852K
20260426T18Z_MSC_RDPS_WindSpeed_IsbL-1015_RLatLon0.09_PT007H.grib2 2026-04-26 21:22 846K
20260426T18Z_MSC_RDPS_WindU_AGL-10m_RLatLon0.09_PT007H.grib2 2026-04-26 21:22 433K
20260426T18Z_MSC_RDPS_WindU_AGL-120m_RLatLon0.09_PT007H.grib2 2026-04-26 21:22 417K
20260426T18Z_MSC_RDPS_WindU_AGL-40m_RLatLon0.09_PT007H.grib2 2026-04-26 21:22 538K
20260426T18Z_MSC_RDPS_WindU_AGL-80m_RLatLon0.09_PT007H.grib2 2026-04-26 21:22 419K
20260426T18Z_MSC_RDPS_WindU_IsbL-0001_RLatLon0.09_PT007H.grib2 2026-04-26 21:22 289K
20260426T18Z_MSC_RDPS_WindU_IsbL-0005_RLatLon0.09_PT007H.grib2 2026-04-26 21:22 283K
20260426T18Z_MSC_RDPS_WindU_IsbL-0010_RLatLon0.09_PT007H.grib2 2026-04-26 21:22 293K
20260426T18Z_MSC_RDPS_WindU_IsbL-0020_RLatLon0.09_PT007H.grib2 2026-04-26 21:22 350K
20260426T18Z_MSC_RDPS_WindU_IsbL-0030_RLatLon0.09_PT007H.grib2 2026-04-26 21:22 348K
20260426T18Z_MSC_RDPS_WindU_IsbL-0050_RLatLon0.09_PT007H.grib2 2026-04-26 21:22 343K
20260426T18Z_MSC_RDPS_WindU_IsbL-0100_RLatLon0.09_PT007H.grib2 2026-04-26 21:22 428K
20260426T18Z_MSC_RDPS_WindU_IsbL-0150_RLatLon0.09_PT007H.grib2 2026-04-26 21:22 394K
20260426T18Z_MSC_RDPS_WindU_IsbL-0175_RLatLon0.09_PT007H.grib2 2026-04-26 21:22 421K
20260426T18Z_MSC_RDPS_WindU_IsbL-0200_RLatLon0.09_PT007H.grib2 2026-04-26 21:22 340K
20260426T18Z_MSC_RDPS_WindU_IsbL-0225_RLatLon0.09_PT007H.grib2 2026-04-26 21:22 346K
20260426T18Z_MSC_RDPS_WindU_IsbL-0250_RLatLon0.09_PT007H.grib2 2026-04-26 21:22 348K
20260426T18Z_MSC_RDPS_WindU_IsbL-0275_RLatLon0.09_PT007H.grib2 2026-04-26 21:22 362K
20260426T18Z_MSC_RDPS_WindU_IsbL-0300_RLatLon0.09_PT007H.grib2 2026-04-26 21:22 357K
20260426T18Z_MSC_RDPS_WindU_IsbL-0350_RLatLon0.09_PT007H.grib2 2026-04-26 21:22 365K
20260426T18Z_MSC_RDPS_WindU_IsbL-0400_RLatLon0.09_PT007H.grib2 2026-04-26 21:22 469K
20260426T18Z_MSC_RDPS_WindU_IsbL-0450_RLatLon0.09_PT007H.grib2 2026-04-26 21:22 468K
20260426T18Z_MSC_RDPS_WindU_IsbL-0500_RLatLon0.09_PT007H.grib2 2026-04-26 21:22 468K
20260426T18Z_MSC_RDPS_WindU_IsbL-0550_RLatLon0.09_PT007H.grib2 2026-04-26 21:22 471K
20260426T18Z_MSC_RDPS_WindU_IsbL-0600_RLatLon0.09_PT007H.grib2 2026-04-26 21:22 482K
20260426T18Z_MSC_RDPS_WindU_IsbL-0650_RLatLon0.09_PT007H.grib2 2026-04-26 21:22 484K
20260426T18Z_MSC_RDPS_WindU_IsbL-0700_RLatLon0.09_PT007H.grib2 2026-04-26 21:22 505K
20260426T18Z_MSC_RDPS_WindU_IsbL-0750_RLatLon0.09_PT007H.grib2 2026-04-26 21:22 533K
20260426T18Z_MSC_RDPS_WindU_IsbL-0800_RLatLon0.09_PT007H.grib2 2026-04-26 21:22 577K
20260426T18Z_MSC_RDPS_WindU_IsbL-0850_RLatLon0.09_PT007H.grib2 2026-04-26 21:22 623K
20260426T18Z_MSC_RDPS_WindU_IsbL-0875_RLatLon0.09_PT007H.grib2 2026-04-26 21:22 637K
20260426T18Z_MSC_RDPS_WindU_IsbL-0900_RLatLon0.09_PT007H.grib2 2026-04-26 21:22 647K
20260426T18Z_MSC_RDPS_WindU_IsbL-0925_RLatLon0.09_PT007H.grib2 2026-04-26 21:22 653K
20260426T18Z_MSC_RDPS_WindU_IsbL-0950_RLatLon0.09_PT007H.grib2 2026-04-26 21:22 651K
20260426T18Z_MSC_RDPS_WindU_IsbL-0970_RLatLon0.09_PT007H.grib2 2026-04-26 21:22 651K
20260426T18Z_MSC_RDPS_WindU_IsbL-0985_RLatLon0.09_PT007H.grib2 2026-04-26 21:22 789K
20260426T18Z_MSC_RDPS_WindU_IsbL-1000_RLatLon0.09_PT007H.grib2 2026-04-26 21:22 784K
20260426T18Z_MSC_RDPS_WindU_IsbL-1015_RLatLon0.09_PT007H.grib2 2026-04-26 21:22 779K
20260426T18Z_MSC_RDPS_WindV_AGL-10m_RLatLon0.09_PT007H.grib2 2026-04-26 21:22 428K
20260426T18Z_MSC_RDPS_WindV_AGL-120m_RLatLon0.09_PT007H.grib2 2026-04-26 21:22 415K
20260426T18Z_MSC_RDPS_WindV_AGL-40m_RLatLon0.09_PT007H.grib2 2026-04-26 21:22 418K
20260426T18Z_MSC_RDPS_WindV_AGL-80m_RLatLon0.09_PT007H.grib2 2026-04-26 21:22 417K
20260426T18Z_MSC_RDPS_WindV_IsbL-0001_RLatLon0.09_PT007H.grib2 2026-04-26 21:22 263K
20260426T18Z_MSC_RDPS_WindV_IsbL-0005_RLatLon0.09_PT007H.grib2 2026-04-26 21:22 326K
20260426T18Z_MSC_RDPS_WindV_IsbL-0010_RLatLon0.09_PT007H.grib2 2026-04-26 21:22 336K
20260426T18Z_MSC_RDPS_WindV_IsbL-0020_RLatLon0.09_PT007H.grib2 2026-04-26 21:22 310K
20260426T18Z_MSC_RDPS_WindV_IsbL-0030_RLatLon0.09_PT007H.grib2 2026-04-26 21:22 350K
20260426T18Z_MSC_RDPS_WindV_IsbL-0050_RLatLon0.09_PT007H.grib2 2026-04-26 21:22 340K
20260426T18Z_MSC_RDPS_WindV_IsbL-0100_RLatLon0.09_PT007H.grib2 2026-04-26 21:22 327K
20260426T18Z_MSC_RDPS_WindV_IsbL-0150_RLatLon0.09_PT007H.grib2 2026-04-26 21:22 391K
20260426T18Z_MSC_RDPS_WindV_IsbL-0175_RLatLon0.09_PT007H.grib2 2026-04-26 21:22 420K
20260426T18Z_MSC_RDPS_WindV_IsbL-0200_RLatLon0.09_PT007H.grib2 2026-04-26 21:22 437K
20260426T18Z_MSC_RDPS_WindV_IsbL-0225_RLatLon0.09_PT007H.grib2 2026-04-26 21:22 345K
20260426T18Z_MSC_RDPS_WindV_IsbL-0250_RLatLon0.09_PT007H.grib2 2026-04-26 21:22 347K
20260426T18Z_MSC_RDPS_WindV_IsbL-0275_RLatLon0.09_PT007H.grib2 2026-04-26 21:22 359K
20260426T18Z_MSC_RDPS_WindV_IsbL-0300_RLatLon0.09_PT007H.grib2 2026-04-26 21:22 353K
20260426T18Z_MSC_RDPS_WindV_IsbL-0350_RLatLon0.09_PT007H.grib2 2026-04-26 21:22 360K
20260426T18Z_MSC_RDPS_WindV_IsbL-0400_RLatLon0.09_PT007H.grib2 2026-04-26 21:22 362K
20260426T18Z_MSC_RDPS_WindV_IsbL-0450_RLatLon0.09_PT007H.grib2 2026-04-26 21:22 462K
20260426T18Z_MSC_RDPS_WindV_IsbL-0500_RLatLon0.09_PT007H.grib2 2026-04-26 21:22 463K
20260426T18Z_MSC_RDPS_WindV_IsbL-0550_RLatLon0.09_PT007H.grib2 2026-04-26 21:22 466K
20260426T18Z_MSC_RDPS_WindV_IsbL-0600_RLatLon0.09_PT007H.grib2 2026-04-26 21:22 476K
20260426T18Z_MSC_RDPS_WindV_IsbL-0650_RLatLon0.09_PT007H.grib2 2026-04-26 21:22 495K
20260426T18Z_MSC_RDPS_WindV_IsbL-0700_RLatLon0.09_PT007H.grib2 2026-04-26 21:22 500K
20260426T18Z_MSC_RDPS_WindV_IsbL-0750_RLatLon0.09_PT007H.grib2 2026-04-26 21:22 527K
20260426T18Z_MSC_RDPS_WindV_IsbL-0800_RLatLon0.09_PT007H.grib2 2026-04-26 21:22 570K
20260426T18Z_MSC_RDPS_WindV_IsbL-0850_RLatLon0.09_PT007H.grib2 2026-04-26 21:22 616K
20260426T18Z_MSC_RDPS_WindV_IsbL-0875_RLatLon0.09_PT007H.grib2 2026-04-26 21:22 632K
20260426T18Z_MSC_RDPS_WindV_IsbL-0900_RLatLon0.09_PT007H.grib2 2026-04-26 21:22 650K
20260426T18Z_MSC_RDPS_WindV_IsbL-0925_RLatLon0.09_PT007H.grib2 2026-04-26 21:22 655K
20260426T18Z_MSC_RDPS_WindV_IsbL-0950_RLatLon0.09_PT007H.grib2 2026-04-26 21:22 647K
20260426T18Z_MSC_RDPS_WindV_IsbL-0970_RLatLon0.09_PT007H.grib2 2026-04-26 21:22 647K
20260426T18Z_MSC_RDPS_WindV_IsbL-0985_RLatLon0.09_PT007H.grib2 2026-04-26 21:22 646K
20260426T18Z_MSC_RDPS_WindV_IsbL-1000_RLatLon0.09_PT007H.grib2 2026-04-26 21:22 643K
20260426T18Z_MSC_RDPS_WindV_IsbL-1015_RLatLon0.09_PT007H.grib2 2026-04-26 21:22 774K